TITAN 3C TRANSTAGE DEB, 26764

Orbit data source: Space-Track

TITAN 3C TRANSTAGE DEB, 26764 is space debris in HEO originally from a launch on Tue, 21 Dec 1965 UTC launched from the Air Force Eastern Test Range (AFETR). Debris objects in space refer to the collection of defunct objects orbiting the Earth. Examples of debris include non-operational satellites, rocket bodies, and fragments generated from explosions, collisions, or faulty payload assembly.

Loading next visibility...
Identifier
26764, 1965-108AT
Orbit
HEO
Country
Flag of USUS
Related business
Manufacturer
Unknown
Mission
Spacecraft
Bus & Motor
Unknown
Mass
Unknown
Launch date (UTC)
1965-12-21 (60 years ago)
Launch vehicle
Unknown
Launch site
Air Force Eastern Test Range (AFETR)
Object type
Payload
Rocket body
Debris
Shape & HBR
Unknown shape, 0.1 m
Radar Cross Section
Small (<0.1 m²)

Expand to show TLE details & history
Last TLE update: 4 months ago

TLE from 4 months ago
0 TITAN 3C TRANSTAGE DEB
1 26764U 65108AT  25365.44249289  .00000201  00000-0  19687-2 0  9994
2 26764  26.1674 180.6758 6790006 216.9721  80.5971  2.67016819  7944
Epoch: 2025-12-31T10:37Z
TLE epoch observation values (Epoch: 2025-12-31T10:37:11.385Z)
Latitude
2.74371°
Longitude
-73.19652°
Altitude
21,995.706 km
Speed
3.152 km/s
True Right ascension
12h 24m 50s
True Declination
2° 44' 22"
Sunlit
Object was in daylight at epoch
Visualization orbit readout
Latitude
Unknown
Longitude
Unknown
Altitude
Unknown
Speed
Unknown
Apparent Right ascension
Unknown
Apparent Declination
Unknown
Sunlit
N/A
Visualization observer readout
Local Sidereal Time
01:57:02
Azimuth
Unknown
Elevation
Unknown
Doppler factor
Unknown
Orbital elements
Apogee altitude
30,477.023 km
Perigee altitude
668.01 km
Semi-major axis
21,950.653 km
Eccentricity
0.679
Inclination
26.1674°
RAAN
180.6758°
Arg. of periapsis
216.9721°
True anomaly
149.24623°
Mean anomaly
80.5971°
Eccentric anomaly
115.66329°
Mean motion
0.66738 °/min
Orbital period
539.42 mins
BSTAR
0.0019687
Loading maneuver chart data...
Computing Atmospheric mass density...

Documentation

Showing up to 5 results
|